Location: Unspecified
(0.0000°N, 0.0000°E)
Time: 15:15:07
(UTC+00:00)

N. Korean satellite - Visible Passes

Search period start: 30 November 2021 00:00
Search period end: 10 December 2021 00:00
Orbit: 447 x 495 km, 97.3° (Epoch: 30 November)

Date Brightness Start Highest point End Pass type
(mag) Time Alt. Az. Time Alt. Az. Time Alt. Az.
01 Dec 6.3 04:55:23 10° N 04:58:44 80° W 05:02:08 10° SSW visible
02 Dec 8.6 04:27:21 10° NE 04:30:19 29° E 04:33:19 10° SSE visible
04 Dec 6.5 05:03:04 10° N 05:06:23 55° WNW 05:09:45 10° SSW visible
05 Dec 7.9 04:34:45 10° NNE 04:37:57 40° ESE 04:41:12 10° S visible
06 Dec 9.8 04:07:48 10° ENE 04:09:31 13° ESE 04:11:15 10° SE visible
07 Dec 6.9 05:10:46 10° N 05:13:58 39° W 05:17:12 10° SSW visible
08 Dec 7.1 04:42:09 10° NNE 04:45:29 56° E 04:48:53 10° S visible
09 Dec 9.4 04:14:38 10° ENE 04:17:01 18° ESE 04:19:26 10° SE visible
